Weather in Novomykolaivka

Ukraine / Donetsk Region     48°33′43″N   37°22′14″E
temp.,
°C
wind,
m/s
gust,
m/s
humid.,
%
clouds,
%
prec.,
mm/h
press.,
hPa
HPBL,
m
18 may, tue
tue1800:00+15sse4996100 0.4 1007322
03:00+14sw61193100 0.4 1006319
06:00+15ssw4890100 0.1 1006324
09:00+17sw6875100 0.1 1007831
12:00+20ssw6762100 0.3 10061383
15:00+21ssw8858100 1.2 10061653
18:00+19ssw696495 0.2 10061151
21:00+15s5118016 0.3 1006366
19 may, wed
wed1900:00+13sse51192100 0.0 1006367
03:00+14s5894100 0.6 1006386
06:00+13sse4892100 1.4 1006316
09:00+15s5680100 1.8 1006659
12:00+14sse4676100 2.6 1007501
15:00+18ssw7961100 3.9 10061595
18:00+16sw6972100 1.2 1006878
21:00+12s5119024 1.6 1007367
20 may, thu
thu2000:00+12ssw6119499 1.4 1006555
03:00+12ssw81392100 4.6 1006708
06:00+12sw71194100 0.9 1008657
09:00+12sw61091100 1.0 1010695
12:00+16wsw7107094 0.1 10111279
15:00+20wsw7950100 0.1 10112294
18:00+20sw2556100 0.0 10111120
21:00+16s1161100 0.0 101211
21 may, fri
fri2100:00+13s348215 0.0 101247
03:00+11se237998 0.0 101229
06:00+13e3682100 0.0 1012141
09:00+18ese61166100 0.0 1011584
12:00+22ese5757100 0.0 10101014
15:00+23se5756100 0.0 10101372
18:00+22ese4767100 0.0 1009497
21:00+18e3780100 0.0 1009124
22 may, sat
sat2200:00+17ene118757 0.0 100811
03:00+16ne118920 0.0 100811
06:00+16n23895 0.0 100974
09:00+22nne34713 0.0 1009514
12:00+25nne3360100 0.0 10091058
15:00+27ne3356100 0.0 10101354
18:00+26ne346461 0.0 1009557
21:00+20ese478671 0.0 1011123